Home > Weather > Antwerp > Past weeks

Flag for Belgium Past Weather in Antwerp, Belgium — Yesterday and Last 2 Weeks

Now
64 °F

Broken clouds.


Feels Like: 64 °F
Forecast: 63 / 69 °F
Wind: 5 mph from Southwest

Location: Antwerp / Deurne

Current Time: Jul 28, 2016 at 8:48:45 AM

Latest Report: Jul 28, 2016 at 8:20 AM


Visibility: N/A

Pressure: 29.98 "Hg

Humidity: 83%

Dew Point: 59 °F

Location of AntwerpLocation

Past Weather in Antwerp — Graph

°F

Antwerp Temperature Yesterday

Maximum temperature yesterday: 72 °F (at 4:50 PM)
Minimum temperature yesterday: 57 °F (at 6:50 AM)
Average temperature yesterday: 66 °F

High & Low Weather Summary for the Past Weeks

 TemperatureHumidityPressure
High93 °F (Jul 20, 1:50 PM)88% (Jul 15, 6:20 AM)30.30 "Hg (Jul 15, 6:20 AM)
Low52 °F (Jul 15, 6:20 AM)34% (Jul 20, 1:50 PM)29.83 "Hg (Jul 20, 2:20 PM)
Average69 °F69%30.10 "Hg
* Reported Jul 13 7:20 AM — Jul 28 7:50 AM, Antwerp, Weather by CustomWeather, © 2016

Note: Actual official high and low records may vary slightly from our data, if they occured in-between our weather recording intervals... More about our weather records

Advertising

Antwerp Weather History for the Previous 24 Hours

Scroll right to see more
 ConditionsComfort  
Time TempWeatherWind HumidityBarometerVisibility
7:50 AM
Thu, Jul 28
64 °FBroken clouds.3 mph83%29.98 "HgN/A
7:20 AM64 °FBroken clouds.6 mph78%29.98 "HgN/A
6:50 AM64 °FPartly cloudy.5 mph83%29.98 "HgN/A
6:20 AM64 °FPartly cloudy.5 mph83%29.98 "HgN/A
5:50 AM64 °FPassing clouds.5 mph83%29.98 "HgN/A
5:20 AM64 °FPartly cloudy.5 mph83%29.98 "HgN/A
4:50 AM64 °FPassing clouds.5 mph83%29.98 "HgN/A
4:20 AM64 °FPassing clouds.3 mph83%29.98 "HgN/A
3:50 AM64 °FPassing clouds.3 mph83%29.98 "HgN/A
3:20 AM64 °FPassing clouds.5 mph83%30.01 "Hg5 mi
2:50 AM64 °FPassing clouds.5 mph83%30.01 "HgN/A
2:20 AM64 °FPassing clouds.3 mph83%30.01 "Hg6 mi
1:50 AM64 °FPassing clouds.5 mph83%30.01 "Hg3 mi
1:20 AM64 °FSprinkles. Partly cloudy.3 mph83%30.01 "Hg3 mi
12:50 AM64 °FSprinkles. Passing clouds.6 mph83%30.01 "Hg4 mi
12:20 AM66 °FPassing clouds.6 mph78%30.01 "HgN/A
11:50 PM
Wed, Jul 27
66 °FPassing clouds.5 mph78%30.04 "HgN/A
11:20 PM66 °FPassing clouds.5 mph78%30.04 "HgN/A
10:50 PM66 °FPassing clouds.6 mph78%30.01 "HgN/A
10:20 PM66 °FScattered clouds.7 mph78%30.04 "HgN/A
9:50 PM66 °FScattered clouds.8 mph78%30.04 "HgN/A
9:20 PM68 °FScattered clouds.9 mph73%30.01 "HgN/A
8:50 PM68 °FPartly sunny.9 mph69%30.01 "HgN/A
8:20 PM68 °FPartly sunny.13 mph73%30.01 "HgN/A
7:50 PM68 °FPartly sunny.13 mph69%30.01 "HgN/A
7:20 PM70 °FPartly sunny.12 mph64%30.01 "HgN/A
6:50 PM70 °FPartly sunny.13 mph64%30.01 "HgN/A
6:20 PM70 °FPartly sunny.13 mph64%30.01 "HgN/A
5:50 PM70 °FBroken clouds.10 mph64%30.01 "HgN/A
5:20 PM70 °FBroken clouds.9 mph64%30.01 "HgN/A
4:50 PM72 °FBroken clouds.10 mph61%30.01 "HgN/A
4:20 PM70 °FScattered clouds.13 mph60%30.01 "HgN/A
3:50 PM70 °FScattered clouds.12 mph60%30.04 "HgN/A
3:20 PM70 °FScattered clouds.13 mph60%30.04 "HgN/A
2:50 PM70 °FScattered clouds.13 mph64%30.04 "HgN/A
2:20 PM70 °FScattered clouds.15 mph64%30.04 "HgN/A
1:50 PM68 °FScattered clouds.10 mph69%30.04 "HgN/A
1:20 PM68 °FScattered clouds.10 mph64%30.04 "HgN/A
12:50 PM70 °FScattered clouds.12 mph64%30.04 "HgN/A
12:20 PM68 °FPartly sunny.9 mph69%30.07 "HgN/A
11:50 AM66 °FPartly sunny.12 mph68%30.07 "HgN/A
11:20 AM66 °FScattered clouds.12 mph78%30.07 "HgN/A
10:50 AM66 °FScattered clouds.8 mph73%30.07 "HgN/A
10:20 AM64 °FScattered clouds.9 mph73%30.07 "HgN/A
9:50 AM64 °FPassing clouds.9 mph73%30.07 "HgN/A
9:20 AM63 °FScattered clouds.9 mph77%30.07 "HgN/A
8:50 AM61 °FScattered clouds.8 mph83%30.07 "HgN/A
8:20 AM61 °FPassing clouds.7 mph83%30.07 "HgN/A
Weather by CustomWeather, © 2016

See weather overviewHow to use our weather pages